Temp_Advection
nan nan nan nan nan nan nan nan nan nan nan nan nan nan nan nan nan nan nan nan nan nan nan nan nan nan nan nan nan nan nan nan nan nan nan nan nan nan nan nan nan nan
nan 0 0 1 1 1 1 0 -0 -1 -1 -0 0 0 0 -0 -0 -0 -0 -1 -0 -0 0 0 0 0 0 0 -0 -0 -0 -0 0 0 -0 -0 0 0 0 -0 -0 nan
nan 0 0 1 1 1 1 0 -0 -1 -1 -0 1 1 0 0 -0 -1 -0 0 0 0 0 -0 0 0 0 -0 -0 -0 -0 -0 0 0 -0 -0 -0 0 0 0 -0 nan
nan 0 0 1 1 1 1 1 -0 -1 0 0 1 1 0 0 0 -1 -1 0 1 0 0 -0 -0 -0 -0 0 -0 -0 -0 -0 0 0 -0 -0 -0 0 0 0 -0 nan
nan 0 0 1 1 1 1 0 -0 -0 0 0 0 1 1 1 -0 -1 -1 0 0 0 0 -0 -0 -0 0 0 -0 -0 -0 0 0 0 -0 -0 -0 0 0 0 -0 nan
nan 0 0 0 1 1 0 -0 -0 -0 0 0 0 0 1 0 -0 -1 -1 0 0 1 1 -0 -1 -0 0 0 -0 -0 0 1 0 -0 -0 -0 -0 0 1 0 -0 nan
nan 0 0 0 1 1 -0 -1 -0 -0 0 0 0 0 0 0 -0 -1 -1 -0 0 1 1 -0 -1 -0 0 0 -0 -0 -0 0 0 -0 -1 -1 -0 0 0 0 -0 nan
nan 0 -0 0 1 1 -0 -0 -0 0 0 -0 -0 0 0 0 -0 -1 -0 -0 0 1 1 -0 -1 -0 1 0 -0 -0 -0 0 0 -0 -1 -1 -0 0 0 0 -0 nan
nan 0 0 1 1 0 -0 -0 -0 0 0 -0 -0 -0 0 -0 -0 -0 -0 -1 -0 0 0 -0 -0 -0 0 -0 -1 -1 -0 0 0 -0 -1 -1 -0 0 0 -0 -0 nan
nan 1 1 1 1 -0 -1 -0 -0 0 0 -0 -0 -0 -0 -0 -0 -0 -1 -1 -0 -0 -0 -0 -0 -1 -1 -1 -1 -1 -0 0 1 0 -1 -1 -0 0 0 -0 0 nan
nan 1 1 0 0 -1 -1 -1 -1 -0 -0 -0 -0 -0 -0 -0 -0 -1 -1 -1 -1 -0 -0 -0 -0 -1 -1 -0 0 0 -0 0 0 -0 -1 -1 -0 0 0 0 0 nan
nan 0 -0 -0 -0 -1 -1 -1 -1 -1 -0 -0 -0 -0 -0 -0 -1 -1 -1 -1 -1 -0 -0 -0 -0 -0 -0 0 1 0 -0 0 0 -0 -0 -0 -0 -0 -0 -0 0 nan
nan -0 -0 -0 -0 -0 -0 -0 -1 -1 -1 -0 -0 -0 -0 -0 -1 -1 -1 -1 -1 -0 -0 -0 -0 -0 -0 0 1 0 -0 0 0 0 -0 -0 -0 0 0 0 0 nan
nan 0 0 -0 -0 -0 -0 -0 -0 -0 -0 -0 -0 -0 -0 -0 -0 -0 -0 -0 0 0 0 -0 -0 -0 -0 -0 -0 0 0 -0 -0 0 0 0 -0 -0 0 0 0 nan
nan 0 0 -0 -0 -0 -0 -0 0 0 0 0 0 0 -0 -0 -0 -0 0 1 0 -0 0 0 -0 -0 -0 -0 -0 -0 0 -0 -0 -0 0 0 -0 -0 -0 -0 -0 nan
nan 0 0 -0 -0 -0 -0 0 0 0 0 0 1 0 -0 -0 0 0 0 0 0 -0 -0 0 0 -0 -1 -1 -0 -0 -0 0 -0 -1 -0 0 -0 -0 -1 -1 -1 nan
nan 1 0 -0 -0 -1 -1 -0 0 1 1 1 1 1 0 0 0 0 0 0 0 -0 -0 -0 0 -0 -1 -2 -1 -0 -0 0 -0 -1 -1 0 0 -0 -1 -1 -0 nan
nan 0 -0 -1 -1 -1 -1 -0 0 1 1 1 1 1 1 0 -0 0 0 0 0 -0 -0 -0 -0 -0 -1 -2 -1 -0 0 0 0 -0 0 0 0 -0 -1 -1 -0 nan
nan -0 -1 -1 -1 -1 -0 0 0 -0 0 1 1 1 0 -1 -1 -0 -0 -0 0 0 -0 -0 -0 -0 -2 -3 -1 -0 0 0 0 0 1 1 0 -1 -1 -1 -0 nan
nan -0 -1 -1 -0 0 0 -0 -0 -1 -0 0 0 0 -1 -1 -1 0 -0 -0 0 0 0 -0 -0 -0 -2 -3 -1 -0 0 0 0 0 1 2 0 -1 -2 -1 -1 nan
nan 0 0 -0 -0 -0 -1 -1 -1 -0 0 -0 -0 -0 -1 -1 -0 0 -0 0 0 0 0 -0 -0 0 -0 -2 -2 -1 0 1 1 1 1 1 -0 -1 -2 -1 -1 nan
nan 0 -0 -1 -1 -1 -1 -1 -1 0 0 0 0 -0 -0 -0 -0 0 0 0 -0 0 -0 -0 -0 0 -0 -2 -3 -1 0 1 1 0 0 -0 -1 -1 -1 -1 -1 nan
nan -0 -1 -1 -1 -2 -2 -1 -0 1 1 1 0 -0 -0 -0 -0 0 1 0 -1 -1 -1 -0 -0 -1 -1 -2 -3 -1 0 0 0 0 -0 -0 -0 -0 -0 -1 -1 nan
nan -0 -1 -2 -2 -2 -1 0 1 1 1 0 -0 -1 -0 -0 -0 0 0 -0 -1 -1 -1 -0 -0 -1 -2 -2 -2 -1 -0 0 1 1 0 -0 -0 -0 -0 -1 -1 nan
nan 0 -1 -2 -2 -1 0 1 1 1 0 -0 -0 0 0 -0 -0 -0 -0 -0 -1 -1 -2 -1 0 0 -1 -2 -2 -1 0 1 1 1 0 -1 -1 -0 -0 -1 -1 nan
nan nan nan nan nan nan nan nan nan nan nan nan nan nan nan nan nan nan nan nan nan nan nan nan nan nan nan nan nan nan nan nan nan nan nan nan nan nan nan nan nan nan
Wind_Speed
41 40 39 38 37 34 30 28 27 27 26 24 21 21 21 21 21 19 19 18 16 15 16 15 14 14 13 12 12 11 10 9 9 9 8 7 7 6 6 7 6 7
43 42 41 39 38 36 33 30 28 27 28 27 24 20 20 21 22 22 21 20 17 16 17 17 16 15 15 14 13 12 12 11 10 10 10 8 8 7 7 7 8 8
43 43 42 41 39 37 35 31 31 30 29 29 27 23 20 21 22 23 23 21 19 18 18 18 18 17 16 16 15 14 13 13 11 11 10 9 9 9 8 8 8 8
43 43 42 41 38 37 36 32 31 32 30 28 28 26 22 21 22 24 24 23 22 21 20 20 19 18 17 17 16 15 15 14 13 12 12 11 10 10 9 9 9 9
43 43 42 41 38 35 34 32 31 32 31 28 27 27 25 23 24 25 25 24 24 23 22 22 21 20 19 18 17 17 16 15 14 14 14 13 11 10 10 10 10 10
43 43 41 41 39 35 33 32 31 31 30 28 26 26 25 25 26 26 25 25 25 24 23 22 23 22 20 20 19 18 17 16 15 15 15 14 13 11 10 11 11 11
43 42 41 40 38 35 34 34 33 31 29 27 27 26 25 25 27 26 26 25 25 25 24 23 23 23 22 22 21 19 18 17 16 16 16 15 14 13 13 13 13 13
43 42 41 40 38 35 34 35 34 32 30 27 26 26 26 26 27 28 27 27 27 26 25 24 24 24 23 22 22 21 19 19 17 18 18 17 15 15 15 14 14 14
43 42 41 41 38 35 34 34 33 33 32 30 28 27 27 27 27 27 28 28 28 27 28 26 25 25 24 23 23 22 21 20 19 19 19 19 18 17 17 16 16 15
43 42 41 41 38 35 34 33 31 31 31 32 31 28 27 28 28 28 28 29 29 29 30 28 27 27 26 25 25 24 23 22 21 20 21 20 19 18 19 18 17 16
43 41 40 40 38 35 34 33 32 30 30 31 31 29 28 28 29 29 29 30 31 31 31 30 29 29 28 27 26 25 25 24 23 22 22 21 20 19 19 19 18 17
42 41 39 39 39 36 34 34 33 31 30 30 30 30 29 28 29 30 31 31 32 32 32 32 31 30 30 29 27 26 25 25 24 23 23 23 22 21 20 20 19 19
41 41 40 38 38 37 34 33 33 32 31 30 30 30 30 29 29 30 32 32 33 32 32 32 32 31 31 31 29 27 26 26 25 24 24 24 23 22 21 20 20 20
41 42 41 39 37 37 35 33 33 33 31 30 30 30 30 30 29 29 31 32 33 33 33 32 33 33 32 32 31 30 28 27 27 25 24 23 23 22 21 21 20 19
41 40 42 41 38 38 37 35 33 33 32 31 30 30 30 30 30 29 29 31 31 33 33 33 33 34 34 34 33 32 30 29 28 28 26 24 23 22 21 21 22 20
40 40 41 42 41 40 39 37 34 33 33 33 32 31 30 31 30 29 29 29 30 31 33 33 33 34 35 35 34 33 32 30 30 30 29 27 26 25 23 22 22 22
41 41 41 42 42 42 42 40 37 34 34 35 33 32 32 32 31 31 30 29 29 30 32 33 34 33 34 36 35 33 32 31 31 31 31 31 30 29 28 27 25 25
42 42 42 43 44 44 44 42 40 36 35 35 34 32 33 33 32 32 32 30 28 29 30 32 32 33 34 36 35 33 32 31 31 31 31 32 31 31 31 30 29 28
43 43 44 45 45 45 45 44 43 40 37 36 35 33 34 35 34 34 34 32 29 28 29 30 29 30 34 36 35 33 31 30 30 30 30 30 30 31 31 31 31 30
44 44 45 45 45 45 45 45 45 44 41 37 35 34 35 37 36 34 34 35 33 29 28 28 27 28 32 35 35 33 31 29 29 30 31 29 27 28 30 31 31 30
44 44 45 45 45 45 45 45 45 45 43 40 36 34 36 38 37 34 34 36 36 33 30 29 28 28 30 33 34 32 31 30 29 30 32 32 31 30 31 31 31 31
44 44 45 45 45 44 44 45 44 44 44 42 37 32 33 36 37 35 34 35 36 36 33 31 29 29 30 33 34 32 30 29 30 31 32 34 34 34 34 33 33 33
43 44 44 44 44 44 44 44 44 43 43 43 39 33 30 31 34 35 34 33 35 37 36 34 32 31 33 35 35 34 31 30 31 32 33 34 34 35 35 35 35 34
43 44 44 44 44 44 43 43 43 42 42 43 41 36 30 29 30 31 32 32 33 35 38 37 34 33 35 37 37 36 33 32 32 33 34 34 35 35 36 36 36 36
42 43 44 44 43 43 42 42 42 41 41 42 42 38 33 29 28 28 29 30 30 32 35 37 35 34 35 38 38 37 35 34 33 33 34 35 35 35 36 36 37 36
40 41 43 43 42 42 42 41 40 39 39 40 40 38 34 30 28 27 27 28 28 28 30 34 35 34 35 37 38 37 36 34 33 33 34 34 35 35 36 36 37 37
Wind_Direction
222 223 224 225 226 226 222 220 225 231 232 228 225 230 231 228 229 222 216 222 224 222 225 224 221 222 221 222 224 223 225 225 222 228 230 225 226 230 236 239 238 241
223 224 225 226 227 227 224 222 223 227 232 233 226 222 225 227 231 233 228 225 224 223 226 226 223 224 225 225 226 225 227 229 226 229 233 230 229 229 232 240 242 242
223 224 226 226 226 227 226 223 226 228 231 236 232 221 217 220 225 232 235 232 228 224 225 227 224 224 225 226 227 226 227 231 229 230 236 234 232 233 231 235 242 247
222 223 225 226 224 226 227 223 224 230 230 232 233 224 214 214 218 226 233 233 231 228 226 226 224 223 224 223 225 227 228 233 233 231 235 238 237 237 236 233 235 240
222 222 224 225 223 222 224 221 220 226 228 225 227 224 215 210 214 224 231 229 229 229 227 227 224 221 222 221 220 225 229 233 235 234 234 237 237 237 240 242 239 236
221 222 222 223 223 218 218 219 217 221 225 221 220 220 215 210 213 222 228 228 227 227 224 224 224 221 220 221 219 222 228 231 234 238 238 235 235 237 239 243 245 243
220 221 221 221 221 216 215 219 219 218 219 217 215 215 213 211 214 218 222 227 229 226 221 220 224 224 220 221 222 221 227 230 229 236 241 237 235 237 236 236 242 246
219 219 219 218 216 214 215 219 221 219 215 213 211 213 212 212 217 218 219 223 227 226 222 218 221 225 221 221 226 225 228 232 230 233 241 242 238 238 236 234 239 245
217 217 218 217 213 212 213 215 219 219 217 214 212 213 212 212 217 219 219 222 224 224 225 221 220 224 222 219 226 230 229 232 232 234 241 245 243 242 242 241 241 244
215 215 216 215 211 210 211 211 213 215 216 216 215 213 213 214 216 218 220 224 225 223 226 225 222 225 225 222 226 232 233 232 232 232 237 244 246 244 245 246 245 245
213 212 211 212 210 207 209 209 209 211 212 215 216 213 211 215 218 219 220 226 227 225 226 228 226 227 228 226 226 231 234 235 235 235 237 243 245 244 243 245 245 243
210 208 207 209 209 206 206 207 207 208 210 213 214 211 209 212 219 222 221 224 229 228 226 229 229 229 230 228 225 228 232 236 237 238 241 243 245 244 244 244 245 243
206 207 205 205 207 205 205 206 206 207 208 211 212 210 208 208 215 223 224 225 229 229 227 229 230 230 232 231 227 225 229 234 236 236 239 243 245 245 244 245 246 247
204 206 206 204 204 205 204 204 206 206 206 208 209 209 209 207 209 218 225 226 228 229 228 229 231 231 232 234 232 228 227 232 236 236 235 238 242 243 243 243 243 244
202 203 205 205 205 205 204 203 205 206 205 206 208 209 209 209 208 212 220 223 224 227 228 227 230 233 233 234 234 232 230 231 236 239 237 235 236 239 241 242 244 243
201 201 204 206 206 206 206 203 203 204 204 204 207 209 209 210 209 210 215 220 221 224 227 227 228 231 234 235 235 235 233 232 235 240 242 240 238 238 239 242 245 247
200 200 202 205 206 207 207 204 202 203 204 204 205 208 210 210 209 209 212 217 220 222 226 228 228 229 233 237 237 237 236 236 237 241 245 246 245 244 245 246 248 250
201 199 203 206 207 209 211 209 204 201 203 204 203 206 210 210 210 210 210 212 216 220 223 227 228 229 233 238 240 239 239 239 241 243 245 247 248 247 249 251 252 253
203 201 204 208 209 211 213 212 208 203 203 204 202 204 209 213 215 214 213 213 213 217 221 224 226 228 234 240 242 242 241 239 241 243 244 244 245 248 251 252 254 254
204 204 206 209 210 210 212 213 213 210 207 205 204 205 211 217 219 218 218 219 216 214 218 221 222 226 234 241 243 242 241 239 238 241 242 240 239 243 249 252 253 254
204 205 206 209 210 210 211 214 215 214 212 209 206 207 214 221 222 220 221 223 221 217 217 220 222 225 232 240 243 241 239 237 236 237 239 240 239 241 246 250 252 254
205 205 207 209 210 211 212 214 216 216 216 214 210 207 212 220 224 223 222 225 226 224 221 222 224 224 229 237 242 241 237 234 233 234 237 240 242 244 247 249 252 254
205 207 208 210 211 211 212 214 216 217 217 216 213 207 208 215 222 223 223 224 227 229 227 226 226 228 230 235 240 241 237 233 231 233 236 239 242 245 248 250 252 253
207 209 210 211 212 213 213 214 215 217 217 217 215 211 208 211 217 221 222 222 226 231 233 232 230 232 235 238 240 241 240 235 233 233 235 239 242 245 248 250 252 254
207 209 211 213 213 213 213 213 214 215 216 217 218 215 211 210 214 217 219 220 223 229 235 237 235 233 237 241 242 242 242 240 237 235 235 238 241 245 248 251 253 255
204 209 213 215 215 214 213 212 213 214 215 218 218 217 213 212 214 216 218 220 221 223 231 239 240 236 237 242 245 244 243 242 240 238 237 237 240 243 246 250 253 255
Height
1553 1555 1558 1561 1564 1566 1569 1571 1572 1574 1576 1578 1579 1581 1582 1583 1584 1586 1587 1587 1588 1589 1590 1591 1592 1593 1593 1594 1594 1595 1595 1595 1596 1597 1597 1597 1598 1598 1599 1599 1600 1600
1549 1552 1555 1558 1560 1563 1566 1568 1570 1572 1573 1575 1577 1579 1580 1581 1582 1583 1585 1586 1587 1588 1589 1590 1591 1592 1592 1593 1593 1594 1594 1595 1595 1596 1596 1597 1597 1598 1598 1599 1599 1599
1546 1549 1551 1554 1557 1560 1562 1565 1567 1569 1571 1573 1575 1577 1578 1579 1580 1581 1583 1584 1585 1586 1587 1588 1589 1590 1591 1592 1592 1593 1593 1594 1594 1595 1595 1596 1596 1597 1597 1598 1599 1599
1542 1545 1548 1551 1554 1557 1559 1562 1564 1565 1568 1570 1572 1574 1576 1577 1578 1578 1580 1582 1583 1585 1585 1586 1587 1588 1589 1590 1591 1592 1592 1593 1593 1594 1594 1595 1595 1596 1596 1597 1598 1598
1538 1542 1545 1548 1551 1554 1556 1559 1561 1562 1565 1567 1569 1571 1573 1575 1575 1576 1578 1579 1581 1582 1583 1584 1586 1587 1588 1589 1590 1590 1591 1592 1592 1592 1593 1594 1594 1595 1595 1596 1596 1597
1535 1538 1541 1545 1548 1551 1553 1555 1558 1559 1562 1564 1566 1568 1570 1572 1573 1573 1575 1577 1578 1580 1581 1582 1583 1585 1586 1587 1588 1589 1589 1590 1591 1591 1592 1592 1593 1594 1594 1595 1595 1595
1531 1534 1538 1541 1544 1547 1549 1551 1554 1556 1559 1561 1563 1565 1567 1569 1570 1571 1573 1574 1576 1577 1579 1580 1581 1582 1584 1585 1586 1587 1588 1589 1590 1590 1590 1591 1592 1592 1593 1594 1594 1594
1527 1531 1534 1538 1541 1544 1546 1548 1551 1553 1556 1558 1560 1562 1564 1566 1567 1569 1571 1572 1573 1575 1576 1578 1579 1580 1582 1583 1584 1585 1586 1587 1588 1588 1589 1589 1590 1591 1591 1592 1592 1593
1524 1527 1531 1534 1537 1540 1543 1545 1547 1550 1552 1555 1557 1559 1561 1563 1564 1566 1568 1569 1570 1572 1573 1575 1577 1578 1580 1581 1582 1583 1584 1585 1586 1586 1587 1587 1588 1589 1590 1590 1591 1591
1520 1524 1527 1530 1534 1537 1539 1542 1545 1547 1549 1551 1554 1556 1558 1560 1561 1563 1565 1566 1568 1569 1570 1572 1574 1575 1577 1579 1580 1580 1581 1582 1584 1584 1585 1585 1586 1587 1588 1588 1589 1589
1516 1520 1524 1526 1530 1534 1536 1539 1542 1544 1546 1548 1550 1553 1555 1557 1558 1560 1562 1563 1564 1566 1567 1569 1571 1573 1574 1576 1577 1578 1579 1580 1581 1582 1583 1583 1584 1585 1586 1586 1587 1587
1512 1516 1520 1522 1526 1530 1533 1536 1538 1541 1543 1544 1547 1549 1552 1554 1555 1557 1559 1560 1561 1563 1565 1566 1568 1570 1571 1573 1575 1576 1577 1578 1579 1580 1580 1581 1582 1583 1583 1584 1585 1586
1508 1512 1515 1519 1522 1526 1530 1532 1535 1538 1540 1542 1544 1546 1549 1551 1552 1553 1555 1557 1559 1560 1562 1563 1565 1567 1568 1570 1572 1574 1575 1576 1576 1577 1578 1579 1579 1580 1581 1582 1583 1583
1504 1508 1512 1515 1519 1523 1526 1529 1532 1534 1537 1539 1541 1543 1545 1548 1549 1551 1552 1554 1556 1557 1559 1561 1562 1564 1565 1567 1569 1571 1572 1573 1574 1575 1576 1577 1577 1578 1579 1580 1581 1582
1501 1505 1508 1512 1516 1519 1522 1526 1528 1531 1534 1536 1538 1539 1542 1545 1547 1549 1549 1551 1553 1554 1556 1557 1559 1560 1561 1563 1565 1567 1569 1571 1571 1572 1573 1574 1575 1576 1577 1578 1578 1579
1499 1502 1505 1508 1512 1515 1518 1522 1525 1527 1530 1533 1534 1536 1538 1541 1544 1546 1547 1548 1549 1551 1553 1554 1555 1556 1557 1559 1562 1564 1566 1568 1569 1570 1571 1572 1573 1573 1574 1575 1576 1577
1495 1498 1501 1504 1507 1510 1514 1517 1521 1524 1526 1529 1531 1533 1535 1537 1540 1542 1544 1546 1547 1548 1549 1551 1552 1553 1554 1555 1558 1561 1563 1565 1566 1567 1568 1569 1570 1570 1571 1573 1573 1574
1491 1494 1497 1500 1504 1507 1509 1513 1517 1520 1522 1525 1527 1529 1531 1534 1536 1538 1541 1543 1544 1545 1546 1547 1549 1550 1551 1552 1555 1558 1560 1562 1564 1564 1565 1565 1566 1567 1568 1569 1570 1572
1487 1490 1493 1496 1500 1503 1506 1509 1513 1516 1518 1521 1524 1526 1528 1530 1532 1534 1537 1539 1541 1542 1543 1545 1546 1547 1547 1549 1552 1554 1557 1559 1561 1561 1562 1562 1563 1564 1565 1566 1567 1568
1483 1486 1489 1492 1496 1500 1503 1506 1509 1512 1515 1517 1520 1522 1524 1526 1528 1531 1533 1535 1537 1539 1540 1542 1543 1544 1544 1546 1548 1551 1554 1556 1558 1558 1559 1560 1560 1561 1562 1563 1564 1565
1479 1482 1486 1489 1492 1496 1499 1502 1505 1508 1511 1514 1517 1519 1520 1522 1525 1527 1529 1531 1533 1535 1537 1538 1540 1541 1542 1543 1545 1548 1550 1553 1554 1555 1555 1556 1557 1558 1559 1560 1561 1562
1476 1479 1482 1485 1488 1492 1495 1498 1501 1504 1508 1511 1513 1516 1518 1519 1521 1524 1525 1527 1529 1531 1533 1534 1536 1538 1539 1540 1541 1544 1547 1549 1550 1551 1552 1552 1553 1554 1555 1557 1558 1559
1473 1476 1479 1482 1484 1487 1491 1494 1497 1501 1504 1507 1510 1513 1515 1516 1518 1520 1522 1524 1525 1527 1529 1531 1533 1534 1535 1536 1538 1540 1543 1545 1546 1547 1548 1549 1550 1551 1552 1553 1554 1556
1469 1472 1475 1478 1480 1483 1487 1490 1494 1497 1500 1503 1506 1510 1512 1514 1515 1517 1519 1521 1522 1523 1525 1527 1529 1531 1532 1533 1535 1537 1539 1541 1543 1544 1544 1545 1547 1548 1549 1550 1551 1552
1466 1469 1471 1474 1477 1480 1484 1487 1490 1494 1497 1500 1503 1506 1509 1512 1513 1515 1516 1518 1519 1520 1522 1524 1526 1528 1528 1529 1531 1533 1535 1538 1539 1540 1541 1542 1544 1544 1545 1546 1547 1548
1463 1466 1468 1471 1474 1477 1481 1484 1487 1490 1494 1497 1500 1503 1506 1508 1511 1512 1513 1515 1517 1518 1519 1520 1522 1524 1525 1526 1528 1530 1532 1534 1536 1536 1538 1539 1541 1542 1542 1543 1544 1545